Content
SEND FEEDBACK

Daily
Averages
Monthly
Summary
United Kingdom

MALMESBURY, ENGLAND


Home > Europe > United Kingdom > England
Elevation: 360 feet     Latitude: 51 41N     Longitude: 001 54W

WEATHER
 
SELECT A DAY
Number of Records: 166,661;   Date Range: 7/16/96 - 7/9/14
 
SHARE

PRINT THIS DATA

[ ← Previous Day ]
WEATHER ALMANAC - OCTOBER 1, 2013
[ Next Day → ]
[ °C ]   °F
Weather ElementAverageHighLow
Temperature47.7 °F62.6 °F (3:36 pm) (10:30 am)
Dewpoint46 °F59.5 °F (5:58 pm) (7:00 pm)
Humidity93.2 %100 % (3:14 am)82 % (9:45 pm)
Wind Speed10.3 mph16.1 mph (9:45 pm)
Weather ElementAverage
Visibility6.2 mi
Wind DirectionENE (75.1 °)

Weather ElementTotal
Precipitation---
Heating Degree Days33.7 (Base 65)
Averaged from 59 records on October 1, 2013
WEATHER CONDITIONS BREAKOUT
WIND DIRECTION BREAKOUT
WEATHER BY HOUR - OCTOBER 1, 2013
[ °C ]   °F
Local TimeTemperatureDewpointHumidityBarometerVisibilityWind DirectionWind SpeedGust SpeedPrecipitationEventsConditions
1:58 AM53.6 °F52.0 °F94 %29.75 in6.2 miEast (80°)8.1 mphMostly Cloudy
1:59 AM53.6 °F51.8 °F94 %29.74 in6.2 miEast (80°)8.1 mphScattered Clouds
2:06 AM53.6 °F51.8 °F94 %29.75 in6.2 miEast (80°)8.1 mphMostly Cloudy
2:58 AM53.1 °F52.0 °F96 %29.76 in6.2 miEast (80°)4.6 mphMostly Cloudy
3:14 AM51.8 °F51.8 °F100 %29.75 in6.2 miENE (70°)8.1 mphScattered Clouds
3:53 AM51.8 °F51.8 °F100 %29.74 in6.2 miENE (70°)6.9 mphMostly Cloudy
3:56 AM51.8 °F51.8 °F100 %29.74 in6.2 miENE (70°)6.9 mphScattered Clouds
3:58 AM52.3 °F51.8 °F98 %29.75 in6.2 miENE (70°)6.9 mphScattered Clouds
4:00 AM51.8 °F51.8 °F100 %29.74 in6.2 miENE (70°)6.9 mphMostly Cloudy
4:07 AM51.8 °F51.8 °F100 %29.74 in6.2 miEast (80°)6.9 mphMostly Cloudy
4:08 AM51.8 °F51.8 °F100 %29.74 in6.2 miEast (80°)6.9 mphMostly Cloudy
4:13 AM51.8 °F51.8 °F100 %29.74 in6.2 miEast (80°)5.8 mphMostly Cloudy
4:58 AM52.3 °F51.8 °F98 %29.75 in6.2 miENE (70°)8.1 mphOvercast
5:48 AM53.6 °F51.8 °F94 %29.74 in6.2 miEast (80°)5.8 mphOvercast
5:54 AM53.6 °F51.8 °F94 %29.74 in6.2 miENE (70°)8.1 mphOvercast
5:58 AM52.7 °F52.2 °F98 %29.75 in6.2 miENE (70°)6.9 mphOvercast
6:58 AM52.7 °F52.2 °F98 %29.75 in6.2 miENE (70°)11.5 mphOvercast
7:46 AM51.8 °F51.8 °F100 %29.76 in6.2 miEast (80°)9.2 mphOvercast
7:58 AM52.3 °F51.8 °F98 %29.77 in6.2 miENE (70°)10.4 mphOvercast
8:58 AM52.3 °F52.0 °F99 %29.77 in5.6 miENE (70°)8.1 mphMostly Cloudy
9:14 AM53.6 °F51.8 °F94 %29.76 in6.2 miENE (70°)10.4 mphMostly Cloudy
9:30 AM53.6 °F51.8 °F94 %29.76 in6.2 miENE (70°)9.2 mphMostly Cloudy
9:34 AM53.6 °F51.8 °F94 %29.76 in6.2 miENE (70°)10.4 mphMostly Cloudy
9:52 AM53.6 °F53.6 °F100 %29.75 in6.2 miNorthMostly Cloudy
9:58 AM53.6 °F53.2 °F99 %NorthMostly Cloudy
10:30 AM0.0 °F0.0 °FNorthMostly Cloudy
10:49 AM0.0 °F0.0 °FNorthScattered Clouds
10:58 AM0.0 °F0.0 °FNorthScattered Clouds
11:17 AM0.0 °F0.0 °FNorthMostly Cloudy
11:19 AM0.0 °F0.0 °FNorthScattered Clouds
11:58 AM0.0 °F0.0 °FNorthPartly Cloudy
12:49 PM0.0 °F0.0 °FNorthMostly Cloudy
12:58 PM0.0 °F0.0 °FNorthMostly Cloudy
1:13 PM0.0 °F0.0 °FNorthMostly Cloudy
1:58 PM60.8 °F57.0 °F87 %29.76 in6.2 miEast (100°)9.2 mphOvercast
2:58 PM61.2 °F57.6 °F88 %29.76 in6.2 miESE (120°)10.4 mphOvercast
3:36 PM62.6 °F59.0 °F88 %29.75 in6.2 miESE (110°)10.4 mphOvercast
3:58 PM61.7 °F58.6 °F90 %29.76 in6.2 miESE (110°)8.1 mphOvercast
4:36 PM60.8 °F59.0 °F94 %29.75 in6.2 miESE (110°)10.4 mphOvercast
4:58 PM60.8 °F59.2 °F94 %29.76 in6.2 miESE (120°)10.4 mphOvercast
5:58 PM60.4 °F59.5 °F97 %29.76 in6.2 miESE (120°)15.0 mphOvercast
6:18 PM60.8 °F59.0 °F94 %29.75 in6.2 miESE (110°)11.5 mphOvercast
6:27 PM60.8 °F59.0 °F94 %29.75 in6.2 miEast (100°)13.8 mphOvercast
6:32 PM60.8 °F59.0 °F94 %29.75 in6.2 miESE (110°)12.7 mphOvercast
6:58 PM59.5 °F58.3 °F96 %29.77 in6.2 miESE (120°)12.7 mphOvercast
7:42 PM59.0 °F57.2 °F94 %29.77 in6.2 miESE (120°)11.5 mphOvercast
7:49 PM59.0 °F57.2 °F94 %29.77 in6.2 miESE (120°)12.7 mphOvercast
7:51 PM59.0 °F57.2 °F94 %29.77 in6.2 miESE (120°)11.5 mphOvercast
7:58 PM59.0 °F57.0 °F93 %29.78 in6.2 miESE (110°)12.7 mphOvercast
8:24 PM59.0 °F55.4 °F88 %29.78 in6.2 miESE (110°)10.4 mphOvercast
8:58 PM58.8 °F55.0 °F87 %29.79 in6.2 miESE (110°)15.0 mphOvercast
9:45 PM59.0 °F53.6 °F82 %29.77 in6.2 miEast (100°)16.1 mphMostly Cloudy
9:58 PM58.6 °F53.4 °F83 %29.78 in6.2 miEast (100°)15.0 mphMostly Cloudy
10:06 PM59.0 °F53.6 °F82 %29.77 in6.2 miEast (100°)15.0 mphMostly Cloudy
10:29 PM59.0 °F53.6 °F82 %29.76 in6.2 miEast (90°)16.1 mphOvercast
10:58 PM58.6 °F53.6 °F83 %29.76 in6.2 miESE (110°)15.0 mphMostly Cloudy
11:19 PM59.0 °F53.6 °F82 %29.76 in6.2 miEast (100°)13.8 mphOvercast
11:58 PM58.6 °F54.0 °F84 %29.76 in6.2 miEast (100°)10.4 mphMostly Cloudy
11:59 PM59.0 °F53.6 °F82 %29.76 in6.2 miESE (110°)11.5 mphLight Drizzle
Hourly data recorded from EGVA, located miles away from Malmesbury, England







STORIES FROM OUR PARTNERS